Previsão horária em Abomey-Calavi

Hoje, 18 Maio, Terça-feira

Tempo Temperatura Precipitação Vento Pressão Humidade
00:00 +28°C° 0.8 mm 3 m/s 757 mmHg 90%
01:00 +28°C° 0 mm 3 m/s 757 mmHg 90%
02:00 +28°C° 0 mm 3 m/s 757 mmHg 90%
03:00 +28°C° 0 mm 4 m/s 756 mmHg 89%
04:00 +28°C° 0.1 mm 3 m/s 757 mmHg 89%
05:00 +28°C° 0.1 mm 3 m/s 757 mmHg 89%
06:00 +29°C° 0.1 mm 3 m/s 758 mmHg 89%
07:00 +30°C° 0.3 mm 3 m/s 758 mmHg 83%
08:00 +31°C° 0.3 mm 3 m/s 758 mmHg 78%
09:00 +33°C° 0.3 mm 4 m/s 759 mmHg 72%
10:00 +34°C° 0.3 mm 4 m/s 758 mmHg 67%
11:00 +35°C° 0.3 mm 4 m/s 758 mmHg 62%
12:00 +36°C° 0.3 mm 4 m/s 758 mmHg 57%
13:00 +36°C° 0.1 mm 4 m/s 757 mmHg 57%
14:00 +35°C° 0.1 mm 4 m/s 757 mmHg 58%
15:00 +35°C° 0.1 mm 4 m/s 756 mmHg 58%
16:00 +34°C° 0 mm 4 m/s 756 mmHg 64%
17:00 +32°C° 0 mm 4 m/s 757 mmHg 70%
18:00 +30°C° 0 mm 4 m/s 757 mmHg 76%
19:00 +30°C° 0 mm 3 m/s 757 mmHg 78%
20:00 +29°C° 0 mm 3 m/s 758 mmHg 81%
21:00 +29°C° 0 mm 3 m/s 759 mmHg 83%
22:00 +29°C° 0 mm 3 m/s 759 mmHg 84%
23:00 +29°C° 0 mm 3 m/s 758 mmHg 85%

Amanhã, 19 Maio, Quarta-feira

Tempo Temperatura Precipitação Vento Pressão Humidade
00:00 +29°C° 0 mm 4 m/s 758 mmHg 85%
01:00 +29°C° 0 mm 4 m/s 758 mmHg 85%
02:00 +28°C° 0 mm 3 m/s 757 mmHg 85%
03:00 +28°C° 0 mm 3 m/s 757 mmHg 86%
04:00 +28°C° 0 mm 3 m/s 757 mmHg 86%
05:00 +28°C° 0 mm 3 m/s 758 mmHg 86%
06:00 +28°C° 0 mm 2 m/s 758 mmHg 87%
07:00 +30°C° 0 mm 3 m/s 758 mmHg 79%
08:00 +31°C° 0 mm 3 m/s 758 mmHg 71%
09:00 +34°C° 0 mm 4 m/s 759 mmHg 64%
10:00 +34°C° 0 mm 4 m/s 758 mmHg 60%
11:00 +35°C° 0 mm 4 m/s 758 mmHg 57%
12:00 +36°C° 0 mm 4 m/s 758 mmHg 54%
13:00 +36°C° 0 mm 4 m/s 757 mmHg 54%
14:00 +35°C° 0 mm 4 m/s 757 mmHg 54%
15:00 +35°C° 0 mm 4 m/s 756 mmHg 54%
16:00 +34°C° 0 mm 4 m/s 757 mmHg 61%
17:00 +33°C° 0 mm 4 m/s 757 mmHg 68%
18:00 +30°C° 0 mm 4 m/s 757 mmHg 75%
19:00 +30°C° 0 mm 4 m/s 758 mmHg 77%
20:00 +30°C° 0 mm 4 m/s 758 mmHg 79%
21:00 +29°C° 0 mm 4 m/s 759 mmHg 81%
22:00 +29°C° 0.1 mm 4 m/s 758 mmHg 82%
23:00 +29°C° 0.1 mm 4 m/s 758 mmHg 84%

Depois de amanhã, 20 Maio, Quinta-feira

Tempo Temperatura Precipitação Vento Pressão Humidade
00:00 +29°C° 0.1 mm 4 m/s 758 mmHg 85%
01:00 +29°C° 0 mm 4 m/s 758 mmHg 85%
02:00 +28°C° 0 mm 4 m/s 758 mmHg 85%
03:00 +28°C° 0 mm 4 m/s 757 mmHg 85%
04:00 +28°C° 0 mm 4 m/s 758 mmHg 86%
05:00 +28°C° 0 mm 4 m/s 758 mmHg 86%
06:00 +28°C° 0 mm 4 m/s 758 mmHg 87%
07:00 +30°C° 0.1 mm 4 m/s 759 mmHg 79%
08:00 +32°C° 0.1 mm 5 m/s 759 mmHg 72%
09:00 +34°C° 0.1 mm 5 m/s 759 mmHg 65%
10:00 +34°C° 0.1 mm 5 m/s 759 mmHg 62%
11:00 +35°C° 0.1 mm 5 m/s 759 mmHg 59%
12:00 +35°C° 0.1 mm 5 m/s 758 mmHg 56%
13:00 +35°C° 0.1 mm 5 m/s 758 mmHg 56%
14:00 +35°C° 0.1 mm 5 m/s 757 mmHg 56%
15:00 +35°C° 0.1 mm 5 m/s 757 mmHg 56%
16:00 +34°C° 0 mm 5 m/s 757 mmHg 62%
17:00 +32°C° 0 mm 4 m/s 757 mmHg 68%
18:00 +30°C° 0 mm 4 m/s 758 mmHg 74%
19:00 +30°C° 0 mm 4 m/s 758 mmHg 77%
20:00 +29°C° 0 mm 4 m/s 758 mmHg 80%
21:00 +29°C° 0 mm 3 m/s 759 mmHg 83%
22:00 +29°C° 0.2 mm 3 m/s 759 mmHg 84%
23:00 +28°C° 0.2 mm 3 m/s 759 mmHg 86%

21 Maio, Sexta-feira

Tempo Temperatura Precipitação Vento Pressão Humidade
00:00 +28°C° 0.2 mm 3 m/s 759 mmHg 88%
01:00 +28°C° 0 mm 3 m/s 758 mmHg 88%
02:00 +28°C° 0 mm 3 m/s 758 mmHg 88%
03:00 +28°C° 0 mm 4 m/s 757 mmHg 89%
04:00 +28°C° 0 mm 3 m/s 758 mmHg 89%
05:00 +28°C° 0 mm 3 m/s 758 mmHg 89%
06:00 +28°C° 0 mm 3 m/s 759 mmHg 89%
07:00 +29°C° 0 mm 3 m/s 759 mmHg 80%
08:00 +31°C° 0 mm 3 m/s 759 mmHg 72%
09:00 +34°C° 0 mm 4 m/s 759 mmHg 63%
10:00 +35°C° 0 mm 4 m/s 759 mmHg 59%
11:00 +36°C° 0 mm 4 m/s 759 mmHg 55%
12:00 +37°C° 0 mm 4 m/s 758 mmHg 50%
13:00 +36°C° 0 mm 5 m/s 758 mmHg 52%
14:00 +36°C° 0 mm 5 m/s 757 mmHg 53%
15:00 +35°C° 0 mm 5 m/s 757 mmHg 55%
16:00 +34°C° 0 mm 5 m/s 757 mmHg 62%
17:00 +32°C° 0 mm 5 m/s 757 mmHg 69%
18:00 +30°C° 0 mm 4 m/s 757 mmHg 75%
19:00 +30°C° 0 mm 4 m/s 758 mmHg 77%
20:00 +30°C° 0 mm 4 m/s 758 mmHg 79%
21:00 +29°C° 0 mm 4 m/s 758 mmHg 80%
22:00 +29°C° 0 mm 4 m/s 758 mmHg 81%
23:00 +29°C° 0 mm 4 m/s 758 mmHg 82%

22 Maio, Sábado

Tempo Temperatura Precipitação Vento Pressão Humidade
00:00 +29°C° 0 mm 4 m/s 758 mmHg 84%
01:00 +29°C° 0 mm 4 m/s 758 mmHg 84%
02:00 +29°C° 0 mm 4 m/s 758 mmHg 85%
03:00 +28°C° 0 mm 4 m/s 757 mmHg 85%
04:00 +28°C° 0 mm 4 m/s 757 mmHg 85%
05:00 +28°C° 0 mm 3 m/s 758 mmHg 86%
06:00 +28°C° 0 mm 2 m/s 758 mmHg 86%
07:00 +30°C° 0 mm 3 m/s 759 mmHg 78%
08:00 +33°C° 0 mm 3 m/s 759 mmHg 70%
09:00 +34°C° 0 mm 3 m/s 760 mmHg 62%
10:00 +35°C° 0 mm 4 m/s 759 mmHg 58%
11:00 +36°C° 0 mm 4 m/s 759 mmHg 55%
12:00 +37°C° 0 mm 4 m/s 758 mmHg 51%
13:00 +36°C° 0 mm 5 m/s 758 mmHg 52%
14:00 +36°C° 0 mm 5 m/s 757 mmHg 54%
15:00 +35°C° 0 mm 5 m/s 757 mmHg 55%
16:00 +34°C° 0 mm 4 m/s 757 mmHg 61%
17:00 +33°C° 0 mm 4 m/s 757 mmHg 67%
18:00 +30°C° 0 mm 3 m/s 757 mmHg 73%
19:00 +30°C° 0 mm 3 m/s 758 mmHg 76%
20:00 +30°C° 0 mm 4 m/s 758 mmHg 78%
21:00 +29°C° 0 mm 4 m/s 758 mmHg 81%
22:00 +29°C° 0 mm 3 m/s 758 mmHg 82%
23:00 +29°C° 0 mm 3 m/s 758 mmHg 83%

23 Maio, Domingo

Tempo Temperatura Precipitação Vento Pressão Humidade
00:00 +29°C° 0 mm 3 m/s 758 mmHg 84%
01:00 +29°C° 0 mm 3 m/s 758 mmHg 85%
02:00 +29°C° 0 mm 3 m/s 758 mmHg 86%
03:00 +28°C° 0 mm 2 m/s 758 mmHg 87%
04:00 +28°C° 0 mm 2 m/s 758 mmHg 87%
05:00 +28°C° 0 mm 2 m/s 758 mmHg 87%
06:00 +28°C° 0 mm 2 m/s 759 mmHg 87%
07:00 +30°C° 0 mm 2 m/s 759 mmHg 79%
08:00 +33°C° 0 mm 3 m/s 759 mmHg 70%
09:00 +35°C° 0 mm 3 m/s 760 mmHg 61%
10:00 +35°C° 0 mm 3 m/s 759 mmHg 59%
11:00 +36°C° 0 mm 3 m/s 759 mmHg 57%
12:00 +36°C° 0 mm 4 m/s 759 mmHg 55%
13:00 +36°C° 0 mm 4 m/s 758 mmHg 55%
14:00 +36°C° 0 mm 4 m/s 758 mmHg 55%
15:00 +36°C° 0 mm 5 m/s 757 mmHg 55%
16:00 +34°C° 0 mm 4 m/s 757 mmHg 60%
17:00 +33°C° 0 mm 4 m/s 757 mmHg 66%
18:00 +32°C° 0 mm 4 m/s 757 mmHg 71%
19:00 +30°C° 0 mm 4 m/s 757 mmHg 75%
20:00 +30°C° 0 mm 4 m/s 758 mmHg 79%
21:00 +30°C° 0 mm 4 m/s 758 mmHg 83%
22:00 +29°C° 0 mm 4 m/s 758 mmHg 84%
23:00 +29°C° 0 mm 3 m/s 758 mmHg 84%
Mostrar mais

Necessitamos do seu Consentimento

A Meteoprog e os seus Fornecedores de Serviços podem armazenar e aceder a dados pessoais como cookies, identificadores do dispositivo ou outras tecnologias semelhantes existentes no seu dispositivo e processar estes dados para personalizar conteúdos e anúncios, assim como funcionalidades nas redes sociais e análise de tráfego.

  • Armazenar e/ou aceder a informações no seu dispositivo

    Os cookies, identificadores do dispositivo ou outras informações podem ser armazenados ou acedidos no seu dispositivo, para os fins acima indicados.

  • Anúncios e conteúdos personalizados, medição de anúncios e conteúdos, dados sobre o público-alvo e desenvolvimento de produtos

    Os anúncios e os conteúdos podem ser personalizados com base num perfil. Podem ser adicionados dados adicionais para uma maior personalização dos anúncios e dos conteúdos. A eficácia dos anúncios e dos conteúdos pode ser medida. Podem ser obtidas informações sobre o público que visualizou os anúncios e os conteúdos. Estes dados podem ser usados para desenvolver ou melhorar sistemas, softwares ou a experiência do utilizador.

Ao clicar em "Eu concordo”, permitirá o uso de cookies, identificadores do dispositivo e web beacons mencionados ou outras tecnologias semelhantes. As configurações do navegador do seu dispositivo podem ser alteradas.

Para certos fins, podem ser invocados interesses legítimos ao invés de consentimento. Pode ler mais informação sobre este assunto na nossa Política de Privacidade e Cookies.